GW5353 Weather Reports


time (UTC)temp
C
wind
direction
speed
KPH
gust
KPH
rain 1hr
cm
rain 24hr
cm
rain mn
cm
humidity
%
barometer
mb
20260906225533 17 280 0.0 3.2 0.00 0.03 0.00 65 1011.9
20260906225033 17 236 0.0 6.4 0.00 0.03 0.00 65 1012.1
20260906224534 17 264 0.0 6.4 0.00 0.03 0.00 66 1012.3
20260906224033 17 44 0.0 16.1 0.00 0.03 0.00 63 1012.4
20260906223533 17 217 6.4 19.3 0.00 0.03 0.00 62 1012.4
20260906223033 17 289 9.7 19.3 0.00 0.03 0.00 59 1011.8
20260906222533 18 307 4.8 24.1 0.00 0.03 0.00 55 1011.9
20260906222033 19 264 4.8 20.9 0.00 0.03 0.00 51 1011.8
20260906221532 20 259 8.0 19.3 0.00 0.03 0.00 49 1011.9
20260906221031 20 264 0.0 9.7 0.00 0.03 0.00 52 1011.8
20260906220532 21 235 3.2 11.3 0.00 0.03 0.00 52 1011.7
20260906220032 21 288 3.2 9.7 0.00 0.03 0.00 51 1011.7
20260906215531 21 297 0.0 3.2 0.00 0.03 0.00 52 1011.7
20260906215031 21 87 0.0 3.2 0.00 0.03 0.00 53 1011.7
20260906214531 21 86 0.0 6.4 0.00 0.03 0.00 53 1011.8
20260906214030 21 98 1.6 6.4 0.00 0.03 0.00 53 1011.7
20260906213530 21 73 0.0 3.2 0.00 0.03 0.00 52 1011.7
20260906213033 21 78 1.6 9.7 0.00 0.03 0.00 53 1011.7
20260906212528 21 96 1.6 9.7 0.00 0.03 0.00 52 1011.8
20260906212029 21 86 4.8 8.0 0.00 0.03 0.00 54 1011.9
20260906211529 20 84 3.2 11.3 0.00 0.03 0.00 56 1011.8
20260906211028 20 83 8.0 11.3 0.00 0.03 0.00 56 1011.9
20260906210528 20 82 6.4 9.7 0.00 0.03 0.00 60 1012.0
20260906210028 20 82 6.4 12.9 0.00 0.03 0.00 59 1012.0
20260906205527 20 94 6.4 12.9 0.00 0.03 0.00 57 1012.0
20260906205026 21 115 4.8 16.1 0.00 0.03 0.00 54 1012.1
20260906204525 21 87 4.8 19.3 0.00 0.03 0.00 55 1012.1
20260906204025 21 86 4.8 9.7 0.00 0.03 0.00 55 1012.2
20260906203525 21 70 3.2 8.0 0.00 0.03 0.00 55 1012.2
20260906203025 20 83 1.6 12.9 0.00 0.03 0.00 62 1012.2
20260906202524 20 86 6.4 12.9 0.00 0.03 0.00 62 1012.3
20260906202024 20 85 6.4 9.7 0.00 0.03 0.00 60 1012.2
20260906201524 21 96 4.8 11.3 0.00 0.03 0.00 57 1012.2
20260906201023 21 85 4.8 12.9 0.00 0.03 0.00 51 1012.2
20260906200524 21 84 8.0 12.9 0.00 0.03 0.00 47 1012.3
20260906200024 21 74 1.6 8.0 0.00 0.03 0.00 46 1012.1
20260906195522 21 46 4.8 12.9 0.00 0.03 0.00 45 1012.2
20260906195023 21 79 6.4 12.9 0.00 0.03 0.00 45 1012.2
20260906194523 22 27 3.2 11.3 0.00 0.03 0.00 45 1012.4
20260906194023 22 90 0.0 11.3 0.00 0.03 0.00 45 1012.3
20260906193523 22 26 4.8 11.3 0.00 0.03 0.00 44 1012.4
20260906193022 22 34 3.2 11.3 0.00 0.03 0.00 43 1012.3
20260906192521 22 46 4.8 12.9 0.00 0.03 0.00 43 1012.4
20260906192022 22 49 3.2 12.9 0.00 0.03 0.00 43 1012.4
20260906191520 22 77 4.8 19.3 0.00 0.03 0.00 43 1012.3
20260906191019 22 26 9.7 22.5 0.00 0.03 0.00 42 1012.5
20260906190523 22 101 12.9 22.5 0.00 0.03 0.00 41 1012.4
20260906190020 23 85 14.5 22.5 0.00 0.03 0.00 41 1012.4
20260906185519 23 59 11.3 29.0 0.00 0.03 0.00 41 1012.6
20260906185019 23 98 9.7 20.9 0.00 0.03 0.00 42 1012.5
20260906184519 23 127 12.9 20.9 0.00 0.03 0.00 42 1012.6
20260906184018 22 68 11.3 20.9 0.00 0.03 0.00 43 1012.6
20260906183519 22 126 9.7 22.5 0.00 0.03 0.00 42 1012.8
20260906183017 22 72 12.9 24.1 0.00 0.03 0.00 42 1012.8
20260906182516 22 79 8.0 24.1 0.00 0.03 0.00 41 1012.9
20260906182017 23 72 14.5 22.5 0.00 0.03 0.00 42 1012.9
20260906181518 23 84 11.3 25.7 0.00 0.03 0.00 40 1013.1
20260906181015 23 114 14.5 25.7 0.00 0.03 0.00 40 1013.1
20260906180515 23 94 12.9 22.5 0.00 0.03 0.00 39 1013.2
20260906180014 23 56 16.1 22.5 0.00 0.03 0.00 39 1013.2
20260906175514 23 98 12.9 24.1 0.00 0.03 0.00 38 1013.3
20260906175013 23 72 12.9 20.9 0.00 0.03 0.00 38 1013.3
20260906174517 24 81 12.9 24.1 0.00 0.03 0.00 37 1013.4
20260906174013 23 87 12.9 24.1 0.00 0.03 0.00 37 1013.4
20260906173512 23 88 8.0 20.9 0.00 0.03 0.00 38 1013.5
20260906173012 23 85 11.3 27.4 0.00 0.03 0.00 38 1013.5
20260906172511 23 79 17.7 27.4 0.00 0.03 0.00 37 1013.5
20260906172010 23 120 14.5 22.5 0.00 0.03 0.00 37 1013.7
20260906171510 23 81 9.7 19.3 0.00 0.03 0.00 37 1013.7
20260906171009 24 84 12.9 17.7 0.00 0.03 0.00 35 1013.8
20260906170510 23 49 1.6 14.5 0.00 0.03 0.00 34 1013.9
20260906170015 24 146 6.4 14.5 0.00 0.03 0.00 34 1013.9
20260906165511 24 98 8.0 19.3 0.00 0.03 0.00 33 1013.9
20260906165008 23 84 3.2 19.3 0.00 0.03 0.00 34 1014.0
20260906164507 23 93 9.7 20.9 0.00 0.03 0.00 33 1014.1
20260906164008 23 84 8.0 20.9 0.00 0.03 0.00 33 1014.0
20260906163505 23 84 6.4 14.5 0.00 0.03 0.00 35 1013.9
20260906163005 23 128 0.0 11.3 0.00 0.03 0.00 34 1014.1
20260906162509 23 91 3.2 12.9 0.00 0.03 0.00 35 1014.1
20260906162004 23 87 8.0 14.5 0.00 0.03 0.00 37 1014.2
20260906161504 23 73 8.0 14.5 0.00 0.03 0.00 36 1014.3
20260906161004 23 56 4.8 17.7 0.00 0.03 0.00 36 1014.3
20260906160503 23 13 3.2 12.9 0.00 0.03 0.00 36 1014.5
20260906160006 23 43 4.8 12.9 0.00 0.03 0.00 37 1014.4
20260906155503 22 100 0.0 12.9 0.00 0.03 0.00 38 1014.4
20260906155003 22 51 6.4 17.7 0.00 0.03 0.00 39 1014.4
20260906154508 22 94 11.3 17.7 0.00 0.03 0.00 38 1014.3
20260906154004 22 85 6.4 17.7 0.00 0.03 0.00 38 1014.3
20260906153600 22 86 9.7 17.7 0.00 0.03 0.00 37 1014.3
20260906153104 22 44 0.0 6.4 0.00 0.03 0.00 36 1014.3
20260906152559 22 308 1.6 6.4 0.00 0.03 0.00 37 1014.5
20260906152100 22 94 0.0 6.4 0.00 0.03 0.00 36 1014.6
20260906151558 22 94 1.6 6.4 0.00 0.03 0.00 37 1014.6
20260906151057 22 37 1.6 8.0 0.00 0.03 0.00 37 1014.8
20260906150557 22 82 0.0 8.0 0.00 0.03 0.00 38 1014.8
20260906150059 21 243 3.2 8.0 0.00 0.03 0.00 37 1014.9
20260906145555 21 281 0.0 8.0 0.00 0.03 0.00 38 1015.0
20260906145055 21 290 1.6 9.7 0.00 0.03 0.00 38 1014.9
20260906144552 20 239 1.6 11.3 0.00 0.03 0.00 40 1015.0
20260906144050 20 336 0.0 11.3 0.00 0.03 0.00 42 1015.0
20260906143549 18 200 0.0 6.4 0.00 0.03 0.00 48 1015.1
20260906143046 18 295 0.0 4.8 0.00 0.03 0.00 52 1015.1
20260906142545 17 278 0.0 6.4 0.00 0.03 0.00 54 1015.0
20260906142044 17 303 0.0 8.0 0.00 0.03 0.00 53 1015.1
20260906141544 17 195 1.6 8.0 0.00 0.03 0.00 50 1015.1
20260906141043 16 203 0.0 4.8 0.00 0.03 0.00 53 1015.0
20260906140543 16 232 0.0 6.4 0.00 0.03 0.00 58 1015.0
20260906140038 15 236 0.0 6.4 0.00 0.03 0.00 61 1015.0
20260906135538 14 336 0.0 4.8 0.00 0.03 0.00 63 1015.0
20260906135040 13 312 1.6 4.8 0.00 0.03 0.00 65 1015.1
20260906134547 12 301 0.0 6.4 0.00 0.03 0.00 67 1015.1
20260906134037 12 307 1.6 6.4 0.00 0.03 0.00 68 1015.2
20260906133537 12 319 1.6 4.8 0.00 0.03 0.00 69 1015.2
20260906133101 11 231 1.6 4.8 0.00 0.03 0.00 71 1015.2
20260906132537 11 278 0.0 4.8 0.00 0.03 0.00 72 1015.1
20260906132036 10 283 0.0 6.4 0.00 0.03 0.00 73 1015.1
20260906131536 10 300 1.6 6.4 0.00 0.03 0.00 75 1015.1
20260906131035 9 317 3.2 6.4 0.00 0.03 0.00 77 1014.9
20260906130536 8 281 0.0 3.2 0.00 0.03 0.00 79 1014.7
20260906130038 8 297 0.0 3.2 0.00 0.03 0.00 80 1014.8
20260906125536 8 281 0.0 1.6 0.00 0.03 0.00 80 1014.7
20260906125034 8 300 0.0 1.6 0.00 0.03 0.00 80 1014.7
20260906124535 8 286 0.0 4.8 0.00 0.03 0.00 80 1014.6
20260906124035 8 278 0.0 3.2 0.00 0.03 0.00 80 1014.6
20260906123537 8 285 0.0 3.2 0.00 0.03 0.00 79 1014.5
20260906123033 8 284 0.0 3.2 0.00 0.03 0.00 79 1014.5
20260906122533 8 283 0.0 1.6 0.00 0.03 0.00 78 1014.4
20260906122032 8 281 0.0 1.6 0.00 0.03 0.00 77 1014.5
20260906121531 8 277 0.0 1.6 0.00 0.03 0.00 77 1014.4
20260906121030 8 277 0.0 3.2 0.00 0.03 0.00 77 1014.3
20260906120530 8 310 0.0 3.2 0.00 0.03 0.00 77 1014.4
20260906120030 8 283 0.0 4.8 0.00 0.03 0.00 76 1014.4
20260906115535 9 307 0.0 4.8 0.00 0.03 0.00 77 1014.5
20260906115029 8 284 0.0 4.8 0.00 0.03 0.00 77 1014.5
20260906114530 9 278 0.0 4.8 0.00 0.03 0.00 76 1014.5
20260906114029 8 283 0.0 6.4 0.00 0.03 0.00 77 1014.5
20260906113529 8 288 1.6 6.4 0.00 0.03 0.00 77 1014.5
20260906113026 9 276 0.0 6.4 0.00 0.03 0.00 77 1014.5
20260906112526 9 293 0.0 4.8 0.00 0.03 0.00 76 1014.5
20260906112026 9 309 1.6 4.8 0.00 0.03 0.00 76 1014.5
20260906111526 9 262 0.0 4.8 0.00 0.03 0.00 77 1014.4
20260906111024 9 275 0.0 4.8 0.00 0.03 0.00 77 1014.4
20260906110524 10 300 0.0 4.8 0.00 0.03 0.00 75 1014.4
20260906110024 10 314 0.0 1.6 0.00 0.03 0.00 74 1014.3
20260906105522 10 314 0.0 1.6 0.00 0.03 0.00 74 1014.4
20260906105022 10 315 0.0 1.6 0.00 0.03 0.00 74 1014.3
20260906104532 10 301 0.0 3.2 0.00 0.03 0.00 75 1014.3
20260906104021 10 277 0.0 4.8 0.00 0.03 0.00 75 1014.3
20260906103520 10 270 0.0 6.4 0.00 0.03 0.00 74 1014.2
20260906103028 10 269 1.6 6.4 0.00 0.03 0.00 74 1014.3
20260906102520 10 300 1.6 6.4 0.00 0.03 0.00 75 1014.2
20260906102019 10 293 0.0 4.8 0.00 0.03 0.00 76 1014.2
20260906101528 10 302 0.0 3.2 0.00 0.03 0.00 76 1014.2
20260906101019 10 311 0.0 3.2 0.00 0.03 0.00 76 1014.2
20260906100519 10 307 0.0 4.8 0.00 0.03 0.00 75 1014.3
20260906100017 11 316 0.0 4.8 0.00 0.03 0.00 74 1014.2
20260906095518 11 304 1.6 4.8 0.00 0.03 0.00 74 1014.2
20260906095017 11 287 1.6 8.0 0.00 0.03 0.00 74 1014.0
20260906094517 11 290 1.6 8.0 0.00 0.03 0.00 74 1014.1
20260906094016 11 272 0.0 4.8 0.00 0.03 0.00 75 1014.1
20260906093516 11 278 0.0 4.8 0.00 0.03 0.00 75 1014.2
20260906093016 11 317 0.0 4.8 0.00 0.03 0.00 75 1014.3
20260906092516 11 259 0.0 8.0 0.00 0.03 0.00 75 1014.5
20260906092017 11 279 0.0 8.0 0.00 0.03 0.00 76 1014.5
20260906091516 11 290 0.0 3.2 0.00 0.03 0.00 76 1014.5
20260906091015 11 293 0.0 1.6 0.00 0.03 0.00 76 1014.4
20260906090515 11 303 0.0 3.2 0.00 0.03 0.00 77 1014.3
20260906090015 11 315 0.0 4.8 0.00 0.03 0.00 77 1014.3
20260906085514 11 321 0.0 3.2 0.00 0.03 0.00 79 1014.3
20260906085014 11 278 0.0 3.2 0.00 0.03 0.00 80 1014.2
20260906084515 10 307 0.0 1.6 0.00 0.03 0.00 81 1014.1
20260906084017 10 307 0.0 3.2 0.00 0.03 0.00 81 1014.2
20260906083514 10 276 0.0 3.2 0.00 0.03 0.00 81 1014.2
20260906083012 11 272 1.6 3.2 0.00 0.03 0.00 81 1014.2
20260906082511 11 283 0.0 3.2 0.00 0.03 0.00 80 1014.2
20260906082009 11 280 0.0 3.2 0.00 0.03 0.00 79 1014.3
20260906081509 11 263 0.0 4.8 0.00 0.03 0.00 78 1014.4
20260906081006 12 297 0.0 3.2 0.00 0.03 0.00 76 1014.3
20260906080505 12 301 0.0 3.2 0.00 0.03 0.00 76 1014.4
20260906080004 12 272 0.0 1.6 0.00 0.03 0.00 73 1014.4
20260906075502 13 272 0.0 1.6 0.00 0.03 0.00 71 1014.5
20260906075001 13 273 0.0 11.3 0.00 0.03 0.00 69 1014.5
20260906074603 14 257 1.6 11.3 0.00 0.03 0.00 67 1014.5
20260906074059 14 239 3.2 16.1 0.00 0.03 0.00 66 1014.5
20260906073559 14 212 6.4 16.1 0.00 0.03 0.00 67 1014.5
20260906073058 14 208 8.0 12.9 0.00 0.03 0.00 67 1014.6
20260906072557 14 210 3.2 11.3 0.00 0.03 0.00 67 1014.6
20260906072057 15 273 1.6 11.3 0.00 0.03 0.00 67 1014.6
20260906071558 15 198 6.4 11.3 0.00 0.03 0.00 67 1014.6
20260906071056 14 260 4.8 14.5 0.00 0.03 0.00 67 1014.7
20260906070557 14 274 4.8 16.1 0.00 0.03 0.00 67 1014.6
20260906070056 15 285 6.4 12.9 0.00 0.03 0.00 66 1014.6
20260906065555 15 242 3.2 12.9 0.00 0.03 0.00 66 1014.6
20260906065055 15 243 4.8 12.9 0.00 0.03 0.00 67 1014.6
20260906064556 14 291 4.8 11.3 0.00 0.03 0.00 68 1014.7
20260906064054 14 282 1.6 8.0 0.03 0.03 0.00 68 1014.7
20260906063555 15 267 3.2 9.7 0.03 0.03 0.00 67 1014.8
20260906063053 15 248 3.2 9.7 0.03 0.03 0.00 67 1014.8
20260906062552 15 265 3.2 9.7 0.03 0.03 0.00 67 1014.9
20260906062051 15 248 0.0 6.4 0.03 0.03 0.00 67 1014.9
20260906061553 15 308 0.0 6.4 0.03 0.03 0.00 69 1014.9
20260906061049 15 243 3.2 6.4 0.03 0.03 0.00 69 1015.0
20260906060548 14 260 1.6 8.0 0.03 0.03 0.00 72 1015.1
20260906060047 15 277 0.0 6.4 0.03 0.03 0.00 70 1015.1
20260906055546 16 281 0.0 6.4 0.03 0.03 0.03 67 1015.3
20260906055047 16 240 1.6 6.4 0.03 0.03 0.03 62 1015.4
20260906054557 16 258 3.2 9.7 0.03 0.03 0.03 63 1015.4
20260906054046 16 239 4.8 9.7 0.00 0.00 0.00 61 1015.4
20260906053545 16 288 0.0 9.7 0.00 0.00 0.00 59 1015.6
20260906053047 17 275 0.0 12.9 0.00 0.00 0.00 58 1015.5
20260906052548 17 240 6.4 12.9 0.00 0.00 0.00 55 1015.4
20260906052046 16 284 0.0 4.8 0.00 0.00 0.00 56 1015.4
20260906051545 16 233 0.0 8.0 0.00 0.00 0.00 58 1015.5
20260906051047 16 264 0.0 8.0 0.00 0.00 0.00 61 1015.5
20260906050548 16 259 0.0 3.2 0.00 0.00 0.00 62 1015.6
20260906050107 16 243 0.0 9.7 0.00 0.00 0.00 60 1015.6
20260906045545 16 244 3.2 9.7 0.00 0.00 0.00 63 1015.6
20260906045045 16 162 0.0 8.0 0.00 0.00 0.00 61 1015.5
20260906044544 16 269 3.2 8.0 0.00 0.00 0.00 61 1015.6
20260906044043 16 239 0.0 8.0 0.00 0.00 0.00 61 1015.6
20260906043545 16 243 3.2 12.9 0.00 0.00 0.00 61 1015.5
20260906043043 16 217 6.4 17.7 0.00 0.00 0.00 62 1015.5
20260906042542 16 271 6.4 14.5 0.00 0.00 0.00 63 1015.5
20260906042042 15 212 6.4 12.9 0.00 0.00 0.00 64 1015.5
20260906041542 16 139 3.2 11.3 0.00 0.00 0.00 64 1015.5
20260906041042 16 193 6.4 12.9 0.00 0.00 0.00 64 1015.6
20260906040541 15 193 6.4 12.9 0.00 0.00 0.00 64 1015.5
20260906040042 15 242 6.4 16.1 0.00 0.00 0.00 66 1015.7
20260906035542 15 308 4.8 17.7 0.00 0.00 0.00 65 1015.8
20260906035041 15 162 3.2 16.1 0.00 0.00 0.00 64 1015.9
20260906034544 16 276 8.0 22.5 0.00 0.00 0.00 62 1015.7
20260906034040 15 260 9.7 22.5 0.00 0.00 0.00 62 1015.9
20260906033540 13 293 1.6 6.4 0.00 0.00 0.00 66 1015.7
20260906033047 12 281 0.0 3.2 0.00 0.00 0.00 70 1015.4
20260906032542 12 288 0.0 3.2 0.00 0.00 0.00 73 1015.2
20260906032037 12 263 0.0 3.2 0.00 0.00 0.00 73 1015.1
20260906031536 12 269 1.6 4.8 0.00 0.00 0.00 73 1015.1
20260906031037 12 323 1.6 6.4 0.00 0.00 0.00 73 1015.0
20260906030536 12 295 1.6 6.4 0.00 0.00 0.00 74 1014.9
20260906030039 12 287 1.6 4.8 0.00 0.00 0.00 74 1014.8
20260906025536 12 252 1.6 4.8 0.00 0.00 0.00 75 1014.6
20260906025038 12 290 1.6 4.8 0.00 0.00 0.00 75 1014.6
20260906024538 12 285 3.2 4.8 0.00 0.00 0.00 75 1014.6
20260906024036 12 276 0.0 8.0 0.00 0.00 0.00 75 1014.5
20260906023536 12 275 1.6 8.0 0.00 0.00 0.00 75 1014.3
20260906023035 12 283 1.6 4.8 0.00 0.00 0.00 75 1014.2
20260906022536 12 277 0.0 8.0 0.00 0.00 0.00 76 1014.1
20260906022034 13 307 1.6 8.0 0.00 0.00 0.00 76 1014.1
20260906021533 13 284 1.6 8.0 0.00 0.00 0.00 76 1014.1
20260906021036 13 276 1.6 4.8 0.00 0.00 0.00 77 1014.0
20260906020534 13 278 1.6 4.8 0.00 0.00 0.00 77 1014.0
20260906020043 13 278 1.6 4.8 0.00 0.00 0.00 77 1013.9
20260906015533 14 277 0.0 1.6 0.00 0.00 0.00 76 1013.9
20260906015033 15 279 0.0 1.6 0.00 0.00 0.00 77 1013.9
20260906014544 15 224 0.0 1.6 0.00 0.00 0.00 74 1014.0
20260906014032 15 225 0.0 6.4 0.00 0.00 0.00 73 1014.0
20260906013532 15 250 1.6 6.4 0.00 0.00 0.00 74 1013.9
20260906013035 15 276 0.0 4.8 0.00 0.00 0.00 72 1013.9
20260906012532 16 333 1.6 8.0 0.00 0.00 0.00 69 1014.1
20260906012031 16 266 4.8 8.0 0.00 0.00 0.00 63 1014.1
20260906011531 16 287 1.6 4.8 0.00 0.00 0.00 67 1014.2
20260906011032 16 313 0.0 4.8 0.00 0.00 0.00 66 1013.9
20260906010531 16 284 1.6 3.2 0.00 0.00 0.00 67 1014.0
20260906010031 16 269 0.0 3.2 0.00 0.00 0.00 64 1014.0
20260906005530 16 255 0.0 4.8 0.00 0.00 0.00 65 1014.0
20260906005030 16 294 0.0 4.8 0.00 0.00 0.00 66 1014.0
20260906004530 16 295 0.0 4.8 0.00 0.00 0.00 66 1014.0
20260906004030 16 268 0.0 4.8 0.00 0.00 0.00 65 1013.9
20260906003529 16 278 0.0 1.6 0.00 0.00 0.00 66 1013.9
20260906003029 17 268 0.0 1.6 0.00 0.00 0.00 65 1013.9
20260906002528 17 266 0.0 1.6 0.00 0.00 0.00 65 1013.8
20260906002028 17 264 0.0 1.6 0.00 0.00 0.00 62 1013.9
20260906001529 17 266 0.0 1.6 0.00 0.00 0.00 59 1013.8
20260906001028 17 266 0.0 1.6 0.00 0.00 0.00 61 1013.7
20260906000528 17 285 0.0 1.6 0.00 0.00 0.00 61 1013.8
20260906000028 17 339 0.0 1.6 0.00 0.00 0.00 61 1013.8
20260905235529 17 284 0.0 1.6 0.00 0.00 0.00 61 1013.9
20260905235032 17 284 0.0 1.6 0.00 0.00 0.00 60 1013.8
20260905234527 17 284 0.0 4.8 0.00 0.00 0.00 57 1013.8
20260905234027 17 284 0.0 11.3 0.00 0.00 0.00 59 1013.7
20260905233527 17 274 4.8 12.9 0.00 0.00 0.00 61 1013.7
20260905233035 17 246 6.4 19.3 0.00 0.00 0.00 62 1013.7
20260905232528 17 247 8.0 22.5 0.00 0.00 0.00 58 1013.7
20260905232030 18 296 11.3 25.7 0.00 0.00 0.00 57 1013.8
20260905231533 20 308 12.9 22.5 0.00 0.00 0.00 45 1014.1
20260905231027 21 293 3.2 11.3 0.00 0.00 0.00 40 1014.2
20260905230524 21 270 1.6 9.7 0.00 0.00 0.00 36 1014.0
20260905230024 22 22 0.0 17.7 0.00 0.00 0.00 35 1013.8